| time (UTC) | temp F | wind direction | speed MPH | gust MPH | rain 1hr in | rain 24hr in | rain mn in | humidity % | barometer mb |
| 20260507060149 | 54 | 172 | 0.0 | 5.0 | 0.00 | 0.00 | 0.00 | 37 | 968.0 |
| 20260507055653 | 54 | 104 | 0.0 | 10.0 | 0.00 | 0.00 | 0.00 | 37 | 968.0 |
| 20260507055149 | 54 | 89 | 1.0 | 10.0 | 0.00 | 0.00 | 0.00 | 36 | 967.9 |
| 20260507054651 | 54 | 83 | 2.0 | 6.0 | 0.00 | 0.00 | 0.00 | 36 | 967.9 |
| 20260507054149 | 55 | 116 | 0.0 | 6.0 | 0.00 | 0.00 | 0.00 | 36 | 967.9 |
| 20260507053651 | 55 | 68 | 0.0 | 6.0 | 0.00 | 0.00 | 0.00 | 35 | 967.9 |
| 20260507053156 | 56 | 102 | 1.0 | 14.0 | 0.00 | 0.00 | 0.00 | 35 | 967.8 |
| 20260507053148 | 56 | 73 | 2.0 | 7.0 | 0.00 | 0.00 | 0.00 | 35 | 967.9 |
| 20260507052149 | 56 | 93 | 2.0 | 14.0 | 0.00 | 0.00 | 0.00 | 35 | 967.7 |
| 20260507051649 | 56 | 75 | 6.0 | 13.0 | 0.00 | 0.00 | 0.00 | 35 | 967.5 |
| 20260507051149 | 57 | 107 | 2.0 | 11.0 | 0.00 | 0.00 | 0.00 | 34 | 967.5 |
| 20260507050651 | 57 | 97 | 0.0 | 9.0 | 0.00 | 0.00 | 0.00 | 34 | 967.4 |
| 20260507050148 | 57 | 71 | 1.0 | 11.0 | 0.00 | 0.00 | 0.00 | 34 | 967.5 |
| 20260507045650 | 58 | 94 | 2.0 | 14.0 | 0.00 | 0.00 | 0.00 | 33 | 967.4 |
| 20260507045148 | 58 | 114 | 2.0 | 14.0 | 0.00 | 0.00 | 0.00 | 33 | 967.3 |
| 20260507044650 | 58 | 97 | 3.0 | 14.0 | 0.00 | 0.00 | 0.00 | 33 | 967.1 |
| 20260507044149 | 58 | 66 | 2.0 | 13.0 | 0.00 | 0.00 | 0.00 | 34 | 967.1 |
| 20260507043650 | 59 | 92 | 5.0 | 14.0 | 0.00 | 0.00 | 0.00 | 34 | 967.1 |
| 20260507043147 | 59 | 69 | 3.0 | 16.0 | 0.00 | 0.00 | 0.00 | 34 | 967.0 |
| 20260507042650 | 60 | 106 | 4.0 | 19.0 | 0.00 | 0.00 | 0.00 | 33 | 966.8 |
| 20260507042147 | 60 | 100 | 6.0 | 19.0 | 0.00 | 0.00 | 0.00 | 33 | 966.7 |
| 20260507041649 | 60 | 83 | 6.0 | 16.0 | 0.00 | 0.00 | 0.00 | 35 | 966.6 |
| 20260507041146 | 61 | 89 | 4.0 | 14.0 | 0.00 | 0.00 | 0.00 | 35 | 966.7 |
| 20260507040649 | 61 | 0 | 1.0 | 14.0 | 0.00 | 0.00 | 0.00 | 36 | 966.5 |
| 20260507040147 | 61 | 104 | 2.0 | 11.0 | 0.00 | 0.00 | 0.00 | 35 | 966.5 |
| 20260507035649 | 62 | 71 | 6.0 | 11.0 | 0.00 | 0.00 | 0.00 | 35 | 966.2 |
| 20260507035156 | 62 | 38 | 1.0 | 11.0 | 0.00 | 0.00 | 0.00 | 35 | 965.9 |
| 20260507035148 | 62 | 49 | 2.0 | 11.0 | 0.00 | 0.00 | 0.00 | 35 | 965.9 |
| 20260507034148 | 63 | 39 | 3.0 | 7.0 | 0.00 | 0.00 | 0.00 | 34 | 965.8 |
| 20260507033648 | 63 | 75 | 2.0 | 7.0 | 0.00 | 0.00 | 0.00 | 33 | 965.7 |
| 20260507033146 | 64 | 54 | 0.0 | 14.0 | 0.00 | 0.00 | 0.00 | 32 | 965.6 |
| 20260507032647 | 64 | 21 | 4.0 | 14.0 | 0.00 | 0.00 | 0.00 | 31 | 965.4 |
| 20260507032145 | 65 | 68 | 2.0 | 7.0 | 0.00 | 0.00 | 0.00 | 30 | 965.2 |
| 20260507031655 | 66 | 65 | 0.0 | 9.0 | 0.00 | 0.00 | 0.00 | 29 | 965.0 |
| 20260507031648 | 65 | 66 | 0.0 | 6.0 | 0.00 | 0.00 | 0.00 | 30 | 965.1 |
| 20260507030656 | 66 | 99 | 1.0 | 10.0 | 0.00 | 0.00 | 0.00 | 28 | 964.8 |
| 20260507030648 | 66 | 103 | 1.0 | 10.0 | 0.00 | 0.00 | 0.00 | 29 | 964.9 |
| 20260507025647 | 67 | 63 | 2.0 | 9.0 | 0.00 | 0.00 | 0.00 | 27 | 964.9 |
| 20260507025145 | 67 | 63 | 1.0 | 11.0 | 0.00 | 0.00 | 0.00 | 27 | 964.7 |
| 20260507024646 | 67 | 72 | 2.0 | 11.0 | 0.00 | 0.00 | 0.00 | 27 | 964.7 |
| 20260507024145 | 68 | 90 | 2.0 | 11.0 | 0.00 | 0.00 | 0.00 | 27 | 964.4 |
| 20260507023647 | 68 | 63 | 0.0 | 11.0 | 0.00 | 0.00 | 0.00 | 26 | 964.5 |
| 20260507023145 | 69 | 73 | 0.0 | 6.0 | 0.00 | 0.00 | 0.00 | 26 | 964.6 |
| 20260507022646 | 69 | 54 | 1.0 | 7.0 | 0.00 | 0.00 | 0.00 | 26 | 964.7 |
| 20260507022152 | 69 | 354 | 2.0 | 12.0 | 0.00 | 0.00 | 0.00 | 25 | 964.6 |
| 20260507022146 | 69 | 354 | 0.0 | 7.0 | 0.00 | 0.00 | 0.00 | 26 | 964.6 |
| 20260507021144 | 69 | 66 | 2.0 | 12.0 | 0.00 | 0.00 | 0.00 | 25 | 964.5 |
| 20260507020646 | 69 | 66 | 1.0 | 11.0 | 0.00 | 0.00 | 0.00 | 25 | 964.5 |
| 20260507020145 | 69 | 324 | 0.0 | 11.0 | 0.00 | 0.00 | 0.00 | 25 | 964.4 |
| 20260507015646 | 69 | 321 | 2.0 | 11.0 | 0.00 | 0.00 | 0.00 | 25 | 964.5 |
| 20260507015144 | 70 | 180 | 2.0 | 10.0 | 0.00 | 0.00 | 0.00 | 25 | 964.4 |
| 20260507014646 | 70 | 303 | 4.0 | 9.0 | 0.00 | 0.00 | 0.00 | 26 | 964.5 |
| 20260507014143 | 70 | 214 | 1.0 | 9.0 | 0.00 | 0.00 | 0.00 | 25 | 964.5 |
| 20260507013645 | 70 | 0 | 0.0 | 5.0 | 0.00 | 0.00 | 0.00 | 28 | 964.5 |
| 20260507013143 | 71 | 195 | 1.0 | 5.0 | 0.00 | 0.00 | 0.00 | 30 | 964.4 |
| 20260507012644 | 71 | 159 | 0.0 | 2.0 | 0.00 | 0.00 | 0.00 | 28 | 964.3 |
| 20260507012143 | 71 | 159 | 1.0 | 3.0 | 0.00 | 0.00 | 0.00 | 27 | 964.1 |
| 20260507011651 | 71 | 157 | 0.0 | 6.0 | 0.00 | 0.00 | 0.00 | 24 | 964.0 |
| 20260507011644 | 71 | 159 | 2.0 | 6.0 | 0.00 | 0.00 | 0.00 | 25 | 964.0 |
| 20260507010644 | 71 | 158 | 2.0 | 6.0 | 0.00 | 0.00 | 0.00 | 25 | 964.0 |
| 20260507010143 | 71 | 164 | 1.0 | 5.0 | 0.00 | 0.00 | 0.00 | 27 | 964.1 |
| 20260507005644 | 72 | 138 | 2.0 | 7.0 | 0.00 | 0.00 | 0.00 | 28 | 964.3 |
| 20260507005142 | 72 | 92 | 2.0 | 7.0 | 0.00 | 0.00 | 0.00 | 25 | 964.1 |
| 20260507004643 | 72 | 114 | 0.0 | 7.0 | 0.00 | 0.00 | 0.00 | 24 | 964.3 |
| 20260507004141 | 72 | 104 | 2.0 | 7.0 | 0.00 | 0.00 | 0.00 | 24 | 964.4 |
| 20260507003650 | 72 | 144 | 3.0 | 7.0 | 0.00 | 0.00 | 0.00 | 24 | 964.1 |
| 20260507003642 | 72 | 113 | 2.0 | 7.0 | 0.00 | 0.00 | 0.00 | 25 | 964.3 |
| 20260507002644 | 72 | 149 | 2.0 | 6.0 | 0.00 | 0.00 | 0.00 | 25 | 964.4 |
| 20260507002142 | 73 | 102 | 1.0 | 7.0 | 0.00 | 0.00 | 0.00 | 23 | 964.4 |
| 20260507001644 | 73 | 87 | 3.0 | 7.0 | 0.00 | 0.00 | 0.00 | 24 | 964.4 |
| 20260507001143 | 73 | 97 | 3.0 | 6.0 | 0.00 | 0.00 | 0.00 | 26 | 964.4 |
| 20260507000643 | 73 | 142 | 1.0 | 7.0 | 0.00 | 0.00 | 0.00 | 24 | 964.3 |
| 20260507000141 | 74 | 168 | 1.0 | 7.0 | 0.00 | 0.00 | 0.00 | 23 | 964.4 |
| 20260506235651 | 74 | 94 | 0.0 | 4.0 | 0.00 | 0.00 | 0.00 | 24 | 964.4 |
| 20260506235643 | 74 | 100 | 1.0 | 6.0 | 0.00 | 0.00 | 0.00 | 23 | 964.3 |
| 20260506234650 | 74 | 96 | 2.0 | 6.0 | 0.00 | 0.00 | 0.00 | 21 | 964.4 |
| 20260506234642 | 75 | 100 | 0.0 | 4.0 | 0.00 | 0.00 | 0.00 | 21 | 964.3 |
| 20260506234304 | 74 | 93 | 2.0 | 7.0 | 0.00 | 0.00 | 0.00 | 21 | 964.4 |
| 20260506233140 | 74 | 133 | 1.0 | 7.0 | 0.00 | 0.00 | 0.00 | 21 | 964.5 |
| 20260506232642 | 74 | 123 | 2.0 | 5.0 | 0.00 | 0.00 | 0.00 | 23 | 964.6 |
| 20260506232139 | 76 | 80 | 1.0 | 3.0 | 0.00 | 0.00 | 0.00 | 20 | 964.7 |
| 20260506231649 | 76 | 83 | 2.0 | 5.0 | 0.00 | 0.00 | 0.00 | 20 | 964.9 |
| 20260506231642 | 76 | 82 | 0.0 | 5.0 | 0.00 | 0.00 | 0.00 | 21 | 964.8 |
| 20260506230648 | 77 | 93 | 1.0 | 4.0 | 0.00 | 0.00 | 0.00 | 20 | 965.0 |
| 20260506230641 | 76 | 93 | 2.0 | 4.0 | 0.00 | 0.00 | 0.00 | 22 | 965.0 |
| 20260506225649 | 76 | 99 | 0.0 | 5.0 | 0.00 | 0.00 | 0.00 | 20 | 965.1 |
| 20260506225642 | 76 | 93 | 2.0 | 4.0 | 0.00 | 0.00 | 0.00 | 20 | 965.1 |
| 20260506224640 | 77 | 99 | 2.0 | 5.0 | 0.00 | 0.00 | 0.00 | 19 | 965.3 |
| 20260506224139 | 78 | 58 | 0.0 | 6.0 | 0.00 | 0.00 | 0.00 | 19 | 965.3 |
| 20260506223639 | 78 | 17 | 2.0 | 6.0 | 0.00 | 0.00 | 0.00 | 18 | 965.4 |
| 20260506223139 | 78 | 56 | 1.0 | 6.0 | 0.00 | 0.00 | 0.00 | 20 | 965.4 |
| 20260506222647 | 78 | 23 | 2.0 | 5.0 | 0.00 | 0.00 | 0.00 | 19 | 965.7 |
| 20260506222640 | 78 | 39 | 0.0 | 5.0 | 0.00 | 0.00 | 0.00 | 19 | 965.6 |
| 20260506221640 | 78 | 13 | 0.0 | 9.0 | 0.00 | 0.00 | 0.00 | 19 | 965.8 |
| 20260506221140 | 77 | 351 | 2.0 | 9.0 | 0.00 | 0.00 | 0.00 | 21 | 965.8 |
| 20260506220640 | 78 | 10 | 0.0 | 6.0 | 0.00 | 0.00 | 0.00 | 18 | 966.0 |
| 20260506220137 | 78 | 8 | 3.0 | 6.0 | 0.00 | 0.00 | 0.00 | 18 | 966.0 |
| 20260506215645 | 78 | 269 | 0.0 | 3.0 | 0.00 | 0.00 | 0.00 | 20 | 966.2 |
| 20260506215638 | 78 | 14 | 2.0 | 4.0 | 0.00 | 0.00 | 0.00 | 18 | 966.1 |
| 20260506215306 | 78 | 321 | 0.0 | 5.0 | 0.00 | 0.00 | 0.00 | 18 | 966.2 |
| 20260506214137 | 78 | 305 | 0.0 | 5.0 | 0.00 | 0.00 | 0.00 | 18 | 966.4 |
| 20260506213639 | 78 | 262 | 1.0 | 4.0 | 0.00 | 0.00 | 0.00 | 18 | 966.4 |
| 20260506213138 | 78 | 281 | 0.0 | 11.0 | 0.00 | 0.00 | 0.00 | 18 | 966.6 |
| 20260506212639 | 79 | 323 | 2.0 | 11.0 | 0.00 | 0.00 | 0.00 | 18 | 966.6 |
| 20260506212137 | 79 | 275 | 1.0 | 9.0 | 0.00 | 0.00 | 0.00 | 18 | 966.6 |
| 20260506211638 | 79 | 0 | 2.0 | 9.0 | 0.00 | 0.00 | 0.00 | 19 | 966.7 |
| 20260506211137 | 78 | 321 | 1.0 | 7.0 | 0.00 | 0.00 | 0.00 | 18 | 966.7 |
| 20260506210638 | 78 | 288 | 0.0 | 6.0 | 0.00 | 0.00 | 0.00 | 18 | 966.7 |
| 20260506210137 | 78 | 6 | 0.0 | 12.0 | 0.00 | 0.00 | 0.00 | 18 | 966.8 |
| 20260506205638 | 78 | 334 | 6.0 | 13.0 | 0.00 | 0.00 | 0.00 | 18 | 966.9 |
| 20260506205137 | 78 | 316 | 4.0 | 15.0 | 0.00 | 0.00 | 0.00 | 18 | 967.0 |
| 20260506204645 | 77 | 306 | 4.0 | 14.0 | 0.00 | 0.00 | 0.00 | 18 | 967.0 |
| 20260506204637 | 78 | 303 | 3.0 | 15.0 | 0.00 | 0.00 | 0.00 | 19 | 966.9 |
| 20260506203636 | 78 | 340 | 5.0 | 15.0 | 0.00 | 0.00 | 0.00 | 19 | 967.1 |
| 20260506203136 | 78 | 345 | 4.0 | 15.0 | 0.00 | 0.00 | 0.00 | 18 | 967.1 |
| 20260506202637 | 78 | 313 | 5.0 | 15.0 | 0.00 | 0.00 | 0.00 | 18 | 967.1 |
| 20260506202135 | 78 | 355 | 7.0 | 15.0 | 0.00 | 0.00 | 0.00 | 17 | 967.2 |
| 20260506201645 | 78 | 223 | 0.0 | 7.0 | 0.00 | 0.00 | 0.00 | 20 | 967.3 |
| 20260506201638 | 79 | 307 | 7.0 | 14.0 | 0.00 | 0.00 | 0.00 | 17 | 967.2 |
| 20260506200638 | 76 | 247 | 2.0 | 12.0 | 0.00 | 0.00 | 0.00 | 19 | 967.3 |
| 20260506200142 | 76 | 306 | 6.0 | 17.0 | 0.00 | 0.00 | 0.00 | 19 | 967.4 |
| 20260506200135 | 76 | 0 | 4.0 | 12.0 | 0.00 | 0.00 | 0.00 | 18 | 967.4 |
| 20260506195803 | 75 | 300 | 11.0 | 17.0 | 0.00 | 0.00 | 0.00 | 20 | 967.4 |
| 20260506194637 | 76 | 195 | 1.0 | 13.0 | 0.00 | 0.00 | 0.00 | 20 | 967.4 |
| 20260506194136 | 78 | 285 | 8.0 | 13.0 | 0.00 | 0.00 | 0.00 | 19 | 967.5 |
| 20260506193645 | 77 | 217 | 2.0 | 6.0 | 0.00 | 0.00 | 0.00 | 21 | 967.5 |
| 20260506193637 | 77 | 235 | 6.0 | 12.0 | 0.00 | 0.00 | 0.00 | 19 | 967.5 |
| 20260506192635 | 76 | 200 | 1.0 | 9.0 | 0.00 | 0.00 | 0.00 | 21 | 967.5 |
| 20260506192134 | 76 | 307 | 0.0 | 13.0 | 0.00 | 0.00 | 0.00 | 19 | 967.7 |
| 20260506191636 | 76 | 336 | 0.0 | 13.0 | 0.00 | 0.00 | 0.00 | 19 | 967.8 |
| 20260506191141 | 76 | 330 | 0.0 | 11.0 | 0.00 | 0.00 | 0.00 | 20 | 967.9 |
| 20260506191133 | 76 | 310 | 4.0 | 11.0 | 0.00 | 0.00 | 0.00 | 19 | 967.9 |
| 20260506190141 | 75 | 286 | 4.0 | 10.0 | 0.00 | 0.00 | 0.00 | 21 | 967.9 |
| 20260506190134 | 76 | 266 | 2.0 | 11.0 | 0.00 | 0.00 | 0.00 | 20 | 967.9 |
| 20260506185801 | 75 | 6 | 6.0 | 11.0 | 0.00 | 0.00 | 0.00 | 21 | 968.0 |
| 20260506184635 | 75 | 10 | 7.0 | 11.0 | 0.00 | 0.00 | 0.00 | 20 | 968.2 |
| 20260506184133 | 74 | 293 | 1.0 | 11.0 | 0.00 | 0.00 | 0.00 | 21 | 968.3 |
| 20260506183635 | 74 | 282 | 2.0 | 11.0 | 0.00 | 0.00 | 0.00 | 22 | 968.3 |
| 20260506183133 | 74 | 350 | 4.0 | 11.0 | 0.00 | 0.00 | 0.00 | 22 | 968.5 |
| 20260506182634 | 73 | 290 | 4.0 | 11.0 | 0.00 | 0.00 | 0.00 | 23 | 968.6 |
| 20260506182134 | 72 | 165 | 3.0 | 10.0 | 0.00 | 0.00 | 0.00 | 24 | 968.5 |
| 20260506181634 | 72 | 196 | 3.0 | 6.0 | 0.00 | 0.00 | 0.00 | 25 | 968.7 |
| 20260506181140 | 71 | 220 | 2.0 | 7.0 | 0.00 | 0.00 | 0.00 | 28 | 968.8 |
| 20260506181134 | 71 | 220 | 1.0 | 7.0 | 0.00 | 0.00 | 0.00 | 25 | 968.8 |
| 20260506180132 | 70 | 192 | 1.0 | 5.0 | 0.00 | 0.00 | 0.00 | 26 | 968.9 |
| 20260506175634 | 69 | 183 | 2.0 | 5.0 | 0.00 | 0.00 | 0.00 | 28 | 969.0 |
| 20260506175130 | 69 | 240 | 1.0 | 10.0 | 0.00 | 0.00 | 0.00 | 27 | 969.1 |
| 20260506174633 | 69 | 178 | 2.0 | 10.0 | 0.00 | 0.00 | 0.00 | 25 | 969.2 |
| 20260506174132 | 70 | 234 | 1.0 | 11.0 | 0.00 | 0.00 | 0.00 | 26 | 969.2 |
| 20260506173634 | 69 | 268 | 5.0 | 11.0 | 0.00 | 0.00 | 0.00 | 25 | 969.4 |
| 20260506173132 | 69 | 240 | 1.0 | 9.0 | 0.00 | 0.00 | 0.00 | 28 | 969.4 |
| 20260506172641 | 68 | 226 | 4.0 | 10.0 | 0.00 | 0.00 | 0.00 | 28 | 969.7 |
| 20260506172634 | 68 | 168 | 2.0 | 10.0 | 0.00 | 0.00 | 0.00 | 29 | 969.5 |
| 20260506171631 | 68 | 231 | 3.0 | 10.0 | 0.00 | 0.00 | 0.00 | 28 | 969.7 |
| 20260506171130 | 67 | 292 | 3.0 | 9.0 | 0.00 | 0.00 | 0.00 | 29 | 969.8 |
| 20260506170641 | 65 | 269 | 4.0 | 11.0 | 0.00 | 0.00 | 0.00 | 31 | 970.1 |
| 20260506170632 | 66 | 199 | 2.0 | 11.0 | 0.00 | 0.00 | 0.00 | 29 | 969.9 |
| 20260506165633 | 66 | 179 | 1.0 | 9.0 | 0.00 | 0.00 | 0.00 | 33 | 970.1 |
| 20260506165132 | 65 | 264 | 4.0 | 9.0 | 0.00 | 0.00 | 0.00 | 31 | 970.3 |
| 20260506164631 | 65 | 281 | 4.0 | 9.0 | 0.00 | 0.00 | 0.00 | 30 | 970.3 |
| 20260506164131 | 64 | 283 | 3.0 | 9.0 | 0.00 | 0.00 | 0.00 | 32 | 970.3 |
| 20260506163631 | 64 | 203 | 5.0 | 10.0 | 0.00 | 0.00 | 0.00 | 31 | 970.4 |
| 20260506163130 | 63 | 289 | 2.0 | 11.0 | 0.00 | 0.00 | 0.00 | 32 | 970.6 |
| 20260506162638 | 63 | 178 | 6.0 | 10.0 | 0.00 | 0.00 | 0.00 | 31 | 970.7 |
| 20260506162631 | 63 | 202 | 5.0 | 11.0 | 0.00 | 0.00 | 0.00 | 32 | 970.8 |
| 20260506161632 | 63 | 209 | 4.0 | 12.0 | 0.00 | 0.00 | 0.00 | 32 | 970.9 |
| 20260506161129 | 62 | 179 | 6.0 | 12.0 | 0.00 | 0.00 | 0.00 | 32 | 970.8 |
| 20260506160632 | 61 | 212 | 5.0 | 10.0 | 0.00 | 0.00 | 0.00 | 34 | 971.0 |
| 20260506160129 | 61 | 217 | 2.0 | 7.0 | 0.00 | 0.00 | 0.00 | 34 | 971.1 |
| 20260506155639 | 59 | 216 | 4.0 | 9.0 | 0.00 | 0.00 | 0.00 | 36 | 971.2 |
| 20260506155632 | 60 | 214 | 6.0 | 9.0 | 0.00 | 0.00 | 0.00 | 34 | 971.2 |
| 20260506154629 | 58 | 206 | 4.0 | 9.0 | 0.00 | 0.00 | 0.00 | 38 | 971.4 |
| 20260506154129 | 57 | 212 | 5.0 | 9.0 | 0.00 | 0.00 | 0.00 | 37 | 971.5 |
| 20260506153630 | 56 | 185 | 2.0 | 6.0 | 0.00 | 0.00 | 0.00 | 40 | 971.5 |
| 20260506153129 | 55 | 157 | 2.0 | 5.0 | 0.00 | 0.00 | 0.00 | 42 | 971.6 |
| 20260506152630 | 55 | 116 | 2.0 | 5.0 | 0.00 | 0.00 | 0.00 | 40 | 971.7 |
| 20260506152129 | 55 | 182 | 2.0 | 5.0 | 0.00 | 0.00 | 0.00 | 43 | 971.8 |
| 20260506151629 | 54 | 162 | 2.0 | 10.0 | 0.00 | 0.00 | 0.00 | 44 | 971.8 |
| 20260506151136 | 51 | 286 | 3.0 | 6.0 | 0.00 | 0.00 | 0.00 | 50 | 971.9 |
| 20260506151128 | 53 | 195 | 4.0 | 10.0 | 0.00 | 0.00 | 0.00 | 47 | 971.9 |
| 20260506150126 | 49 | 238 | 1.0 | 3.0 | 0.00 | 0.00 | 0.00 | 52 | 972.0 |
| 20260506145630 | 48 | 238 | 1.0 | 2.0 | 0.00 | 0.00 | 0.00 | 53 | 972.0 |
| 20260506145127 | 47 | 238 | 0.0 | 3.0 | 0.00 | 0.00 | 0.00 | 56 | 972.1 |
| 20260506144630 | 46 | 238 | 1.0 | 3.0 | 0.00 | 0.00 | 0.00 | 57 | 972.2 |
| 20260506144128 | 44 | 240 | 0.0 | 2.0 | 0.00 | 0.00 | 0.00 | 59 | 972.2 |
| 20260506143630 | 43 | 240 | 0.0 | 2.0 | 0.00 | 0.00 | 0.00 | 61 | 972.3 |
| 20260506143125 | 42 | 240 | 0.0 | 1.0 | 0.00 | 0.00 | 0.00 | 63 | 972.4 |
| 20260506142628 | 40 | 240 | 0.0 | 2.0 | 0.00 | 0.00 | 0.00 | 64 | 972.5 |
| 20260506142127 | 39 | 240 | 0.0 | 2.0 | 0.00 | 0.00 | 0.00 | 66 | 972.7 |
| 20260506141630 | 38 | 240 | 0.0 | 2.0 | 0.00 | 0.00 | 0.00 | 67 | 972.8 |
| 20260506141127 | 37 | 240 | 0.0 | 2.0 | 0.00 | 0.00 | 0.00 | 69 | 972.8 |
| 20260506140629 | 36 | 240 | 0.0 | 3.0 | 0.00 | 0.00 | 0.00 | 71 | 972.9 |
| 20260506140128 | 35 | 240 | 1.0 | 3.0 | 0.00 | 0.00 | 0.00 | 72 | 972.9 |
| 20260506135628 | 34 | 240 | 1.0 | 3.0 | 0.00 | 0.00 | 0.00 | 74 | 973.0 |
| 20260506135133 | 32 | 240 | 0.0 | 2.0 | 0.00 | 0.00 | 0.00 | 76 | 973.1 |
| 20260506135127 | 33 | 240 | 1.0 | 2.0 | 0.00 | 0.00 | 0.00 | 75 | 973.1 |
| 20260506134126 | 32 | 240 | 0.0 | 1.0 | 0.00 | 0.00 | 0.00 | 76 | 973.2 |
| 20260506133628 | 31 | 240 | 0.0 | 1.0 | 0.00 | 0.00 | 0.00 | 77 | 973.2 |
| 20260506133133 | 30 | 240 | 0.0 | 1.0 | 0.00 | 0.00 | 0.00 | 78 | 973.3 |
| 20260506133125 | 31 | 240 | 0.0 | 1.0 | 0.00 | 0.00 | 0.00 | 78 | 973.2 |
| 20260506132133 | 30 | 240 | 0.0 | 0.0 | 0.00 | 0.00 | 0.00 | 79 | 973.4 |
| 20260506132125 | 30 | 240 | 0.0 | 1.0 | 0.00 | 0.00 | 0.00 | 78 | 973.4 |
| 20260506131124 | 29 | 240 | 0.0 | 0.0 | 0.00 | 0.00 | 0.00 | 79 | 973.5 |
| 20260506130626 | 29 | 240 | 0.0 | 0.0 | 0.00 | 0.00 | 0.00 | 79 | 973.6 |
| 20260506130125 | 28 | 240 | 0.0 | 3.0 | 0.00 | 0.00 | 0.00 | 79 | 973.5 |
| 20260506125626 | 28 | 240 | 0.0 | 3.0 | 0.00 | 0.00 | 0.00 | 79 | 973.7 |
| 20260506125125 | 28 | 240 | 0.0 | 3.0 | 0.00 | 0.00 | 0.00 | 79 | 973.7 |
| 20260506124626 | 28 | 240 | 1.0 | 3.0 | 0.00 | 0.00 | 0.00 | 79 | 973.7 |
| 20260506124132 | 28 | 238 | 0.0 | 2.0 | 0.00 | 0.00 | 0.00 | 79 | 973.8 |
| 20260506124124 | 28 | 238 | 0.0 | 3.0 | 0.00 | 0.00 | 0.00 | 79 | 973.8 |
| 20260506123124 | 28 | 238 | 0.0 | 3.0 | 0.00 | 0.00 | 0.00 | 79 | 973.8 |
| 20260506122625 | 28 | 240 | 1.0 | 3.0 | 0.00 | 0.00 | 0.00 | 79 | 973.9 |
| 20260506122123 | 28 | 240 | 0.0 | 3.0 | 0.00 | 0.00 | 0.00 | 79 | 973.8 |
| 20260506121625 | 28 | 238 | 0.0 | 3.0 | 0.00 | 0.00 | 0.00 | 79 | 973.9 |
| 20260506121123 | 28 | 240 | 0.0 | 5.0 | 0.00 | 0.00 | 0.00 | 79 | 974.0 |
| 20260506120626 | 28 | 237 | 3.0 | 5.0 | 0.00 | 0.00 | 0.00 | 79 | 973.9 |
| 20260506120131 | 28 | 235 | 0.0 | 0.0 | 0.00 | 0.00 | 0.00 | 79 | 974.1 |
| 20260506120123 | 28 | 235 | 0.0 | 3.0 | 0.00 | 0.00 | 0.00 | 79 | 974.0 |
| 20260506115131 | 28 | 235 | 0.0 | 0.0 | 0.00 | 0.00 | 0.00 | 78 | 974.2 |
| 20260506115123 | 28 | 235 | 0.0 | 0.0 | 0.00 | 0.00 | 0.00 | 78 | 974.2 |
| 20260506114123 | 28 | 235 | 0.0 | 0.0 | 0.00 | 0.00 | 0.00 | 78 | 974.2 |
| 20260506113624 | 28 | 235 | 0.0 | 0.0 | 0.00 | 0.00 | 0.00 | 78 | 974.2 |
| 20260506113123 | 28 | 235 | 0.0 | 0.0 | 0.00 | 0.00 | 0.00 | 78 | 974.4 |
| 20260506112624 | 28 | 235 | 0.0 | 0.0 | 0.00 | 0.00 | 0.00 | 78 | 974.4 |
| 20260506112124 | 28 | 235 | 0.0 | 0.0 | 0.00 | 0.00 | 0.00 | 77 | 974.4 |
| 20260506111623 | 28 | 235 | 0.0 | 0.0 | 0.00 | 0.00 | 0.00 | 77 | 974.5 |
| 20260506111122 | 29 | 235 | 0.0 | 3.0 | 0.00 | 0.00 | 0.00 | 77 | 974.5 |
| 20260506110623 | 29 | 235 | 0.0 | 3.0 | 0.00 | 0.00 | 0.00 | 76 | 974.5 |
| 20260506110122 | 29 | 235 | 2.0 | 3.0 | 0.00 | 0.00 | 0.00 | 76 | 974.6 |
| 20260506105622 | 29 | 235 | 1.0 | 3.0 | 0.00 | 0.00 | 0.00 | 76 | 974.8 |
| 20260506105121 | 29 | 235 | 0.0 | 3.0 | 0.00 | 0.00 | 0.00 | 75 | 974.9 |
| 20260506104625 | 29 | 237 | 0.0 | 3.0 | 0.00 | 0.00 | 0.00 | 75 | 974.9 |
| 20260506104121 | 29 | 237 | 2.0 | 3.0 | 0.00 | 0.00 | 0.00 | 74 | 974.9 |
| 20260506103623 | 29 | 237 | 0.0 | 0.0 | 0.00 | 0.00 | 0.00 | 73 | 974.9 |
| 20260506103122 | 29 | 237 | 0.0 | 0.0 | 0.00 | 0.00 | 0.00 | 72 | 975.1 |
| 20260506102631 | 29 | 237 | 0.0 | 2.0 | 0.00 | 0.00 | 0.00 | 72 | 975.1 |
| 20260506102622 | 29 | 237 | 0.0 | 1.0 | 0.00 | 0.00 | 0.00 | 72 | 975.1 |
| 20260506101623 | 30 | 237 | 0.0 | 2.0 | 0.00 | 0.00 | 0.00 | 72 | 975.3 |
| 20260506101127 | 30 | 237 | 0.0 | 2.0 | 0.00 | 0.00 | 0.00 | 71 | 975.4 |
| 20260506101120 | 30 | 237 | 0.0 | 2.0 | 0.00 | 0.00 | 0.00 | 72 | 975.3 |
| 20260506100747 | 30 | 237 | 0.0 | 0.0 | 0.00 | 0.00 | 0.00 | 71 | 975.5 |
| 20260506095621 | 30 | 237 | 0.0 | 2.0 | 0.00 | 0.00 | 0.00 | 70 | 975.5 |
| 20260506095127 | 30 | 237 | 0.0 | 3.0 | 0.00 | 0.00 | 0.00 | 69 | 975.6 |
| 20260506095121 | 30 | 237 | 0.0 | 2.0 | 0.00 | 0.00 | 0.00 | 70 | 975.6 |
| 20260506094119 | 30 | 237 | 0.0 | 3.0 | 0.00 | 0.00 | 0.00 | 68 | 975.7 |
| 20260506093628 | 31 | 237 | 0.0 | 2.0 | 0.00 | 0.00 | 0.00 | 68 | 975.8 |
| 20260506093621 | 31 | 237 | 1.0 | 3.0 | 0.00 | 0.00 | 0.00 | 68 | 975.7 |
| 20260506092622 | 31 | 237 | 0.0 | 2.0 | 0.00 | 0.00 | 0.00 | 68 | 975.8 |
| 20260506092127 | 31 | 237 | 0.0 | 1.0 | 0.00 | 0.00 | 0.00 | 67 | 976.0 |
| 20260506092119 | 31 | 237 | 0.0 | 0.0 | 0.00 | 0.00 | 0.00 | 67 | 975.9 |
| 20260506091118 | 31 | 237 | 0.0 | 2.0 | 0.00 | 0.00 | 0.00 | 65 | 975.9 |
| 20260506090622 | 32 | 237 | 2.0 | 2.0 | 0.00 | 0.00 | 0.00 | 64 | 976.1 |
| 20260506090119 | 32 | 237 | 0.0 | 0.0 | 0.00 | 0.00 | 0.00 | 63 | 976.2 |
| 20260506085620 | 32 | 237 | 0.0 | 0.0 | 0.00 | 0.00 | 0.00 | 63 | 976.2 |
| 20260506085120 | 32 | 237 | 0.0 | 0.0 | 0.00 | 0.00 | 0.00 | 63 | 976.2 |
| 20260506084621 | 32 | 237 | 0.0 | 0.0 | 0.00 | 0.00 | 0.00 | 63 | 976.3 |
| 20260506084123 | 33 | 237 | 0.0 | 2.0 | 0.00 | 0.00 | 0.00 | 61 | 976.3 |
| 20260506084118 | 33 | 237 | 0.0 | 0.0 | 0.00 | 0.00 | 0.00 | 62 | 976.3 |
| 20260506083119 | 33 | 237 | 0.0 | 4.0 | 0.00 | 0.00 | 0.00 | 61 | 976.4 |
| 20260506082620 | 33 | 235 | 3.0 | 5.0 | 0.00 | 0.00 | 0.00 | 61 | 976.5 |
| 20260506082119 | 33 | 237 | 0.0 | 5.0 | 0.00 | 0.00 | 0.00 | 60 | 976.5 |
| 20260506081621 | 34 | 243 | 1.0 | 4.0 | 0.00 | 0.00 | 0.00 | 60 | 976.6 |
| 20260506081118 | 34 | 243 | 0.0 | 4.0 | 0.00 | 0.00 | 0.00 | 61 | 976.6 |
| 20260506080621 | 34 | 241 | 2.0 | 7.0 | 0.00 | 0.00 | 0.00 | 61 | 976.7 |
| 20260506080118 | 34 | 259 | 2.0 | 7.0 | 0.00 | 0.00 | 0.00 | 60 | 976.9 |
| 20260506073124 | 33 | 141 | 0.0 | 1.0 | 0.00 | 0.00 | 0.00 | 62 | 977.5 |
| 20260506073116 | 33 | 142 | 0.0 | 0.0 | 0.00 | 0.00 | 0.00 | 63 | 977.3 |
| 20260506072116 | 33 | 141 | 0.0 | 1.0 | 0.00 | 0.00 | 0.00 | 62 | 977.5 |
| 20260506071620 | 33 | 141 | 0.0 | 0.0 | 0.00 | 0.00 | 0.00 | 62 | 977.4 |
| 20260506071116 | 33 | 141 | 0.0 | 2.0 | 0.00 | 0.00 | 0.00 | 61 | 977.5 |
| 20260506070620 | 33 | 141 | 0.0 | 4.0 | 0.00 | 0.00 | 0.00 | 61 | 977.5 |
| 20260506070116 | 33 | 141 | 3.0 | 4.0 | 0.00 | 0.00 | 0.00 | 61 | 977.6 |
| 20260506062114 | 36 | 55 | 0.0 | 1.0 | 0.00 | 0.00 | 0.00 | 56 | 977.7 |
| 20260506061626 | 37 | 55 | 2.0 | 4.0 | 0.00 | 0.00 | 0.00 | 54 | 977.7 |
| 20260506061618 | 36 | 55 | 0.0 | 4.0 | 0.00 | 0.00 | 0.00 | 55 | 977.7 |